Estación Meteorológica Peña el Pijo (Robertgarden) [ 07/23/19 00:41:55 CEST ]

Fecha Hora Presion(HPa) Temp (°C) Humedad % Rocio (°C) Viento ( m/s) Direccion Lluvia 1Hora(mm) Lluvia 24H(mm) LLuvia Total(mm)
2019-Jul-04 01:08:54 1009.800 - - - - NNW     342.62
2019-Jul-04 02:09:00 1010.000 - - - - NNW     342.62
2019-Jul-04 03:09:33 1009.800 - - - - NNW     342.62
2019-Jul-04 04:10:06 1009.800 - - - - NNW     342.62
2019-Jul-04 05:09:40 1010.000 - - - - NNW     342.62
2019-Jul-04 06:09:53 1009.700 - - - - NNW     342.62
2019-Jul-04 07:09:07 1009.800 - - - - NNW     342.62
2019-Jul-04 08:08:51 1009.900 - - - - NNW     342.62
2019-Jul-04 09:09:20 1010.000 - - - - NNW     342.62
2019-Jul-04 10:09:11 1010.100 - - - - NNW     342.62
2019-Jul-04 11:09:16 1010.100 - - - - NNW     342.62
2019-Jul-04 12:09:17 1010.100 - - - - NNW     342.62
2019-Jul-04 13:09:02 1010.200 - - - - NNW     342.62
2019-Jul-04 14:08:47 1010.100 - - - - NNW     342.62
2019-Jul-04 15:09:01 1009.600 - - - - NNW     342.62
2019-Jul-04 16:09:18 1009.500 - - - - NNW     342.62
2019-Jul-04 17:09:09 1009.200 - - - - NNW     342.62
2019-Jul-04 18:09:05 1009.200 - - - - NNW     342.62
2019-Jul-04 19:09:11 1009.200 - - - - NNW     342.62
2019-Jul-04 20:09:37 1009.400 - - - - NNW     342.62
2019-Jul-04 21:10:04 1009.900 - - - - NNW     342.62
2019-Jul-04 22:09:02 1010.700 - - - - NNW     342.62
2019-Jul-04 23:08:51 1011.700 - - - - NNW     342.62

Temperatura Máxima:    Temperatura Mínima:
Presión Máxima:1011.700 Hpa    Presión Mínima:1009.200 Hpa


Volver